Time,TemperatureF,DewpointF,PressureIn,WindDirection,WindDirectionDegrees,WindSpeedMPH,WindSpeedGustMPH,Humidity,HourlyPrecipIn,Conditions,Clouds,dailyrainin,SoftwareType,DateUTC
2013-05-27 00:02:00,61.0,56.1,29.96,NE,51,0.0,0.0,84,0.00,,,0.00,VWS V14.01,2013-05-27 05:02:00,
2013-05-27 00:08:00,61.0,56.1,29.96,ENE,73,0.0,0.0,84,0.00,,,0.00,VWS V14.01,2013-05-27 05:08:00,
2013-05-27 00:14:00,60.8,55.9,29.96,North,353,0.0,4.0,84,0.00,,,0.00,VWS V14.01,2013-05-27 05:14:00,
2013-05-27 00:19:00,60.8,55.9,29.96,ENE,75,0.0,0.0,84,0.00,,,0.00,VWS V14.01,2013-05-27 05:19:00,
2013-05-27 00:25:00,60.8,55.9,29.96,NE,50,0.0,0.0,84,0.00,,,0.00,VWS V14.01,2013-05-27 05:25:00,
2013-05-27 00:30:00,60.8,55.9,29.96,NE,39,0.0,0.0,84,0.00,,,0.00,VWS V14.01,2013-05-27 05:30:00,
2013-05-27 00:36:00,60.8,55.9,29.96,NE,42,0.0,2.7,84,0.00,,,0.00,VWS V14.01,2013-05-27 05:36:00,
2013-05-27 00:41:00,60.8,55.9,29.96,ESE,110,0.0,0.0,84,0.00,,,0.00,VWS V14.01,2013-05-27 05:41:00,
2013-05-27 00:47:00,60.8,55.9,29.96,North,6,0.0,0.0,84,0.00,,,0.00,VWS V14.01,2013-05-27 05:47:00,
2013-05-27 00:53:00,60.8,55.9,29.96,ESE,119,0.0,0.0,84,0.00,,,0.00,VWS V14.01,2013-05-27 05:53:00,
2013-05-27 00:58:00,60.8,55.9,29.96,South,181,0.0,0.0,84,0.04,,,0.04,VWS V14.01,2013-05-27 05:58:00,
2013-05-27 01:04:00,60.8,56.3,29.96,SSE,148,0.0,0.0,85,0.04,,,0.04,VWS V14.01,2013-05-27 06:04:00,
2013-05-27 01:10:00,60.8,56.3,29.96,SE,133,0.0,0.0,85,0.04,,,0.04,VWS V14.01,2013-05-27 06:10:00,
2013-05-27 01:15:00,60.8,56.3,29.96,SE,133,0.0,0.0,85,0.04,,,0.04,VWS V14.01,2013-05-27 06:15:00,
2013-05-27 01:20:00,60.8,56.3,29.96,East,86,0.0,0.0,85,0.04,,,0.04,VWS V14.01,2013-05-27 06:20:00,
2013-05-27 01:25:00,60.8,56.3,29.96,SE,145,0.0,0.0,85,0.04,,,0.04,VWS V14.01,2013-05-27 06:25:00,
2013-05-27 01:30:00,60.8,56.3,29.93,East,89,0.0,2.2,85,0.04,,,0.04,VWS V14.01,2013-05-27 06:30:00,
2013-05-27 01:36:00,60.8,56.3,29.93,East,86,0.0,0.0,85,0.04,,,0.04,VWS V14.01,2013-05-27 06:36:00,
2013-05-27 01:41:00,60.8,56.3,29.93,East,86,0.0,0.0,85,0.04,,,0.04,VWS V14.01,2013-05-27 06:41:00,
2013-05-27 01:47:00,60.8,56.3,29.96,ENE,76,0.0,4.0,85,0.04,,,0.04,VWS V14.01,2013-05-27 06:47:00,
2013-05-27 01:52:00,60.8,56.3,29.96,SW,217,0.0,0.0,85,0.04,,,0.04,VWS V14.01,2013-05-27 06:52:00,
2013-05-27 01:57:00,60.8,56.3,29.96,WSW,248,0.0,0.0,85,0.04,,,0.04,VWS V14.01,2013-05-27 06:57:00,
2013-05-27 02:03:00,60.8,56.3,29.96,WSW,248,0.0,0.0,85,0.00,,,0.04,VWS V14.01,2013-05-27 07:03:00,
2013-05-27 02:08:00,60.8,56.3,29.96,East,87,0.0,0.0,85,0.00,,,0.04,VWS V14.01,2013-05-27 07:08:00,
2013-05-27 02:14:00,60.8,56.3,29.93,East,87,0.0,0.0,85,0.00,,,0.04,VWS V14.01,2013-05-27 07:14:00,
2013-05-27 02:19:00,60.8,56.3,29.93,NNE,14,0.0,0.0,85,0.00,,,0.04,VWS V14.01,2013-05-27 07:19:00,
2013-05-27 02:25:00,60.8,56.3,29.93,ENE,63,0.0,0.0,85,0.00,,,0.04,VWS V14.01,2013-05-27 07:25:00,
2013-05-27 02:30:00,60.6,56.1,29.91,ENE,63,0.0,0.0,85,0.00,,,0.04,VWS V14.01,2013-05-27 07:30:00,
2013-05-27 02:36:00,60.6,56.1,29.91,ENE,63,0.0,0.0,85,0.00,,,0.04,VWS V14.01,2013-05-27 07:36:00,
2013-05-27 02:42:00,60.6,56.1,29.91,East,93,0.0,0.0,85,0.00,,,0.04,VWS V14.01,2013-05-27 07:42:00,
2013-05-27 02:47:00,60.6,56.1,29.91,SSW,211,0.0,0.0,85,0.00,,,0.04,VWS V14.01,2013-05-27 07:47:00,
2013-05-27 02:53:00,60.6,56.1,29.91,SSW,211,0.0,0.0,85,0.00,,,0.04,VWS V14.01,2013-05-27 07:53:00,
2013-05-27 02:59:00,60.6,56.1,29.93,West,259,0.0,0.0,85,0.00,,,0.04,VWS V14.01,2013-05-27 07:59:00,
2013-05-27 03:04:00,60.6,56.1,29.93,West,260,0.0,0.0,85,0.00,,,0.04,VWS V14.01,2013-05-27 08:04:00,
2013-05-27 03:10:00,60.6,56.1,29.93,West,259,0.0,0.0,85,0.00,,,0.04,VWS V14.01,2013-05-27 08:10:00,
2013-05-27 03:15:00,60.6,56.1,29.93,West,259,0.0,0.0,85,0.00,,,0.04,VWS V14.01,2013-05-27 08:15:00,
2013-05-27 03:21:00,60.6,56.1,29.93,SE,125,0.0,0.0,85,0.00,,,0.04,VWS V14.01,2013-05-27 08:21:00,
2013-05-27 03:26:00,60.6,56.1,29.93,East,94,0.0,0.0,85,0.00,,,0.04,VWS V14.01,2013-05-27 08:26:00,
2013-05-27 03:31:00,60.4,55.9,29.91,East,99,0.0,0.0,85,0.00,,,0.04,VWS V14.01,2013-05-27 08:31:00,
2013-05-27 03:36:00,60.4,55.9,29.91,SE,146,0.0,0.0,85,0.00,,,0.04,VWS V14.01,2013-05-27 08:36:00,
2013-05-27 03:42:00,60.4,55.9,29.91,NW,306,0.0,0.0,85,0.00,,,0.04,VWS V14.01,2013-05-27 08:42:00,
2013-05-27 03:48:00,60.3,55.7,29.91,NW,306,0.0,0.0,85,0.00,,,0.04,VWS V14.01,2013-05-27 08:48:00,
2013-05-27 03:53:00,60.3,55.7,29.91,NW,306,0.0,0.0,85,0.00,,,0.04,VWS V14.01,2013-05-27 08:53:00,
2013-05-27 03:58:00,60.3,55.7,29.93,NW,306,0.0,0.0,85,0.00,,,0.04,VWS V14.01,2013-05-27 08:58:00,
2013-05-27 04:03:00,60.1,55.6,29.93,NW,306,0.0,0.0,85,0.00,,,0.04,VWS V14.01,2013-05-27 09:03:00,
2013-05-27 04:09:00,59.9,55.4,29.93,NW,306,0.0,0.0,85,0.00,,,0.04,VWS V14.01,2013-05-27 09:09:00,
2013-05-27 04:14:00,59.7,55.2,29.91,NW,306,0.0,0.0,85,0.00,,,0.04,VWS V14.01,2013-05-27 09:14:00,
2013-05-27 04:20:00,59.5,55.0,29.91,NW,306,0.0,0.0,85,0.00,,,0.04,VWS V14.01,2013-05-27 09:20:00,
2013-05-27 04:25:00,59.4,54.9,29.91,NW,306,0.0,0.0,85,0.00,,,0.04,VWS V14.01,2013-05-27 09:25:00,
2013-05-27 04:31:00,59.4,54.9,29.91,NW,306,0.0,0.0,85,0.00,,,0.04,VWS V14.01,2013-05-27 09:31:00,
2013-05-27 04:36:00,59.2,54.4,29.91,NW,306,0.0,0.0,84,0.00,,,0.04,VWS V14.01,2013-05-27 09:36:00,
2013-05-27 04:42:00,59.0,54.2,29.91,NW,306,0.0,0.0,84,0.00,,,0.04,VWS V14.01,2013-05-27 09:42:00,
2013-05-27 04:48:00,58.8,54.3,29.91,NW,306,0.0,0.0,85,0.00,,,0.04,VWS V14.01,2013-05-27 09:48:00,
2013-05-27 04:53:00,58.8,54.3,29.91,NW,306,0.0,0.0,85,0.00,,,0.04,VWS V14.01,2013-05-27 09:53:00,
2013-05-27 04:59:00,58.6,54.2,29.93,NW,307,0.0,0.0,85,0.00,,,0.04,VWS V14.01,2013-05-27 09:59:00,
2013-05-27 05:05:00,58.6,54.2,29.93,NW,306,0.0,0.0,85,0.00,,,0.04,VWS V14.01,2013-05-27 10:05:00,
2013-05-27 05:10:00,58.8,54.3,29.93,NW,306,0.0,0.0,85,0.00,,,0.04,VWS V14.01,2013-05-27 10:10:00,
2013-05-27 05:16:00,59.0,54.2,29.93,NW,306,0.0,0.0,84,0.00,,,0.04,VWS V14.01,2013-05-27 10:16:00,
2013-05-27 05:21:00,59.0,54.5,29.93,NW,306,0.0,0.0,85,0.00,,,0.04,VWS V14.01,2013-05-27 10:21:00,
2013-05-27 05:27:00,59.2,54.7,29.93,WNW,282,0.0,0.0,85,0.00,,,0.04,VWS V14.01,2013-05-27 10:27:00,
2013-05-27 05:33:00,59.2,54.7,29.93,SSW,209,0.0,0.0,85,0.00,,,0.04,VWS V14.01,2013-05-27 10:33:00,
2013-05-27 05:38:00,59.2,54.7,29.93,SSW,209,0.0,0.0,85,0.00,,,0.04,VWS V14.01,2013-05-27 10:38:00,
2013-05-27 05:44:00,59.2,54.7,29.93,SSW,209,0.0,0.0,85,0.00,,,0.04,VWS V14.01,2013-05-27 10:44:00,
2013-05-27 05:50:00,59.2,54.7,29.93,SE,124,0.0,0.0,85,0.00,,,0.04,VWS V14.01,2013-05-27 10:50:00,
2013-05-27 05:55:00,59.2,54.7,29.93,SE,124,0.0,0.0,85,0.00,,,0.04,VWS V14.01,2013-05-27 10:55:00,
2013-05-27 06:01:00,59.2,54.7,29.93,SE,124,0.0,0.0,85,0.00,,,0.04,VWS V14.01,2013-05-27 11:01:00,
2013-05-27 06:06:00,59.0,54.5,29.93,SE,125,0.0,0.0,85,0.00,,,0.04,VWS V14.01,2013-05-27 11:06:00,
2013-05-27 06:12:00,59.0,54.5,29.93,SE,125,0.0,0.0,85,0.00,,,0.04,VWS V14.01,2013-05-27 11:12:00,
2013-05-27 06:18:00,59.0,54.5,29.93,SE,125,0.0,0.0,85,0.00,,,0.04,VWS V14.01,2013-05-27 11:18:00,
2013-05-27 06:23:00,59.0,54.5,29.93,SE,125,0.0,0.0,85,0.00,,,0.04,VWS V14.01,2013-05-27 11:23:00,
2013-05-27 06:29:00,59.2,54.7,29.93,SE,125,0.0,0.0,85,0.00,,,0.04,VWS V14.01,2013-05-27 11:29:00,
2013-05-27 06:34:00,59.2,54.7,29.93,SE,124,0.0,0.0,85,0.00,,,0.04,VWS V14.01,2013-05-27 11:34:00,
2013-05-27 06:40:00,59.4,54.9,29.93,SE,124,0.0,0.0,85,0.00,,,0.04,VWS V14.01,2013-05-27 11:40:00,
2013-05-27 06:45:00,59.4,54.9,29.93,SE,125,0.0,0.0,85,0.00,,,0.04,VWS V14.01,2013-05-27 11:45:00,
2013-05-27 06:51:00,59.5,55.0,29.93,SE,125,0.0,0.0,85,0.00,,,0.04,VWS V14.01,2013-05-27 11:51:00,
2013-05-27 06:56:00,59.7,55.2,29.93,NNW,346,0.0,0.0,85,0.00,,,0.04,VWS V14.01,2013-05-27 11:56:00,
2013-05-27 07:01:00,59.9,55.4,29.99,NNW,333,5.4,5.4,85,0.00,,,0.04,VWS V14.01,2013-05-27 12:01:00,
2013-05-27 07:06:00,60.1,55.6,29.99,NW,318,0.0,2.7,85,0.00,,,0.04,VWS V14.01,2013-05-27 12:06:00,
2013-05-27 07:12:00,60.3,55.7,29.99,NNW,342,0.0,0.0,85,0.00,,,0.04,VWS V14.01,2013-05-27 12:12:00,
2013-05-27 07:17:00,60.4,55.9,29.99,NNW,342,0.0,0.0,85,0.00,,,0.04,VWS V14.01,2013-05-27 12:17:00,
2013-05-27 07:22:00,60.6,56.1,29.99,NNW,342,0.0,0.0,85,0.00,,,0.04,VWS V14.01,2013-05-27 12:22:00,
2013-05-27 07:27:00,60.6,56.1,29.96,NNW,342,0.0,0.0,85,0.00,,,0.04,VWS V14.01,2013-05-27 12:27:00,
2013-05-27 07:33:00,60.6,56.1,29.96,NNW,342,0.0,0.0,85,0.00,,,0.04,VWS V14.01,2013-05-27 12:33:00,
2013-05-27 07:38:00,60.6,56.1,29.96,NNW,342,0.0,0.0,85,0.00,,,0.04,VWS V14.01,2013-05-27 12:38:00,
2013-05-27 07:43:00,60.6,56.1,29.96,NNW,342,0.0,0.0,85,0.00,,,0.04,VWS V14.01,2013-05-27 12:43:00,
2013-05-27 07:49:00,60.6,56.1,29.96,NNW,342,0.0,0.0,85,0.04,,,0.08,VWS V14.01,2013-05-27 12:49:00,
2013-05-27 07:54:00,60.6,56.1,29.96,NNW,342,0.0,0.0,85,0.04,,,0.08,VWS V14.01,2013-05-27 12:54:00,
2013-05-27 08:00:00,60.6,56.1,29.93,SSE,166,0.0,0.0,85,0.04,,,0.08,VWS V14.01,2013-05-27 13:00:00,
2013-05-27 08:05:00,60.6,56.1,29.93,SSE,166,0.0,0.0,85,0.04,,,0.08,VWS V14.01,2013-05-27 13:05:00,
2013-05-27 08:11:00,60.6,56.1,29.93,SSE,166,0.0,0.0,85,0.08,,,0.12,VWS V14.01,2013-05-27 13:11:00,
2013-05-27 08:17:00,60.6,56.1,29.93,SSE,166,0.0,0.0,85,0.12,,,0.16,VWS V14.01,2013-05-27 13:17:00,
2013-05-27 08:22:00,60.6,56.1,29.93,WNW,298,0.0,0.0,85,0.12,,,0.16,VWS V14.01,2013-05-27 13:22:00,
2013-05-27 08:28:00,60.6,56.1,29.91,WSW,243,0.0,0.0,85,0.16,,,0.20,VWS V14.01,2013-05-27 13:28:00,
2013-05-27 08:33:00,60.6,56.1,29.91,WSW,243,0.0,0.0,85,0.16,,,0.20,VWS V14.01,2013-05-27 13:33:00,
2013-05-27 08:39:00,60.6,56.1,29.91,WSW,243,0.0,0.0,85,0.16,,,0.20,VWS V14.01,2013-05-27 13:39:00,
2013-05-27 08:44:00,60.6,56.1,29.88,WSW,244,0.0,0.0,85,0.16,,,0.20,VWS V14.01,2013-05-27 13:44:00,
2013-05-27 08:50:00,60.6,56.1,29.88,WSW,243,0.0,0.0,85,0.12,,,0.20,VWS V14.01,2013-05-27 13:50:00,
2013-05-27 08:55:00,60.6,56.1,29.88,WSW,243,0.0,0.0,85,0.12,,,0.20,VWS V14.01,2013-05-27 13:55:00,
2013-05-27 09:00:00,60.6,56.1,29.88,WSW,243,0.0,0.0,85,0.12,,,0.20,VWS V14.01,2013-05-27 14:00:00,
2013-05-27 09:06:00,60.6,56.1,29.88,WSW,243,0.0,0.0,85,0.12,,,0.20,VWS V14.01,2013-05-27 14:06:00,
2013-05-27 09:11:00,60.6,56.1,29.88,WSW,244,0.0,0.0,85,0.08,,,0.20,VWS V14.01,2013-05-27 14:11:00,
2013-05-27 09:17:00,60.6,56.1,29.88,WSW,243,0.0,0.0,85,0.04,,,0.20,VWS V14.01,2013-05-27 14:17:00,
2013-05-27 09:22:00,60.6,56.1,29.88,WSW,244,0.0,0.0,85,0.04,,,0.20,VWS V14.01,2013-05-27 14:22:00,
2013-05-27 09:28:00,60.8,56.3,29.88,WSW,244,0.0,0.0,85,0.00,,,0.20,VWS V14.01,2013-05-27 14:28:00,
2013-05-27 09:33:00,60.8,56.3,29.88,WSW,244,0.0,0.0,85,0.00,,,0.20,VWS V14.01,2013-05-27 14:33:00,
2013-05-27 09:39:00,60.8,56.3,29.88,WSW,243,0.0,0.0,85,0.04,,,0.24,VWS V14.01,2013-05-27 14:39:00,
2013-05-27 09:45:00,61.0,56.5,29.88,WSW,243,0.0,0.0,85,0.04,,,0.24,VWS V14.01,2013-05-27 14:45:00,
2013-05-27 09:50:00,61.0,56.5,29.88,SW,216,0.0,0.0,85,0.04,,,0.24,VWS V14.01,2013-05-27 14:50:00,
2013-05-27 09:56:00,61.2,56.6,29.88,West,274,0.0,0.0,85,0.04,,,0.24,VWS V14.01,2013-05-27 14:56:00,
2013-05-27 10:02:00,61.2,56.6,29.91,West,274,0.0,0.0,85,0.08,,,0.28,VWS V14.01,2013-05-27 15:02:00,
2013-05-27 10:07:00,61.2,56.6,29.91,West,274,0.0,0.0,85,0.08,,,0.28,VWS V14.01,2013-05-27 15:07:00,
2013-05-27 10:13:00,61.2,56.6,29.91,West,274,0.0,0.0,85,0.20,,,0.39,VWS V14.01,2013-05-27 15:13:00,
2013-05-27 10:18:00,61.2,56.6,29.91,NW,316,0.0,2.2,85,0.24,,,0.43,VWS V14.01,2013-05-27 15:18:00,
2013-05-27 10:24:00,61.3,56.8,29.91,ENE,73,0.0,0.0,85,0.35,,,0.55,VWS V14.01,2013-05-27 15:24:00,
2013-05-27 10:30:00,61.3,56.8,29.91,ENE,73,0.0,0.0,85,0.39,,,0.59,VWS V14.01,2013-05-27 15:30:00,
2013-05-27 10:35:00,61.3,56.8,29.91,East,87,0.0,0.0,85,0.43,,,0.63,VWS V14.01,2013-05-27 15:35:00,
2013-05-27 10:41:00,61.3,56.8,29.91,West,260,0.0,0.0,85,0.47,,,0.71,VWS V14.01,2013-05-27 15:41:00,
2013-05-27 10:46:00,61.5,57.0,29.91,WSW,258,0.0,0.0,85,0.51,,,0.75,VWS V14.01,2013-05-27 15:46:00,
2013-05-27 10:52:00,61.5,57.0,29.91,West,261,0.0,2.7,85,0.55,,,0.79,VWS V14.01,2013-05-27 15:52:00,
2013-05-27 10:58:00,61.5,57.0,29.91,WSW,241,0.0,0.0,85,0.63,,,0.87,VWS V14.01,2013-05-27 15:58:00,
2013-05-27 11:03:00,61.7,57.2,29.91,WSW,241,0.0,0.0,85,0.59,,,0.87,VWS V14.01,2013-05-27 16:03:00,
2013-05-27 11:08:00,61.7,57.2,29.91,WSW,255,0.0,0.0,85,0.67,,,0.94,VWS V14.01,2013-05-27 16:08:00,
2013-05-27 11:14:00,61.9,57.3,29.91,ESE,102,0.0,0.0,85,0.59,,,0.98,VWS V14.01,2013-05-27 16:14:00,
2013-05-27 11:20:00,61.9,57.3,29.91,SSW,194,0.0,3.1,85,0.55,,,0.98,VWS V14.01,2013-05-27 16:20:00,
2013-05-27 11:25:00,62.1,57.5,29.91,South,187,0.0,0.0,85,0.47,,,1.02,VWS V14.01,2013-05-27 16:25:00,
2013-05-27 11:31:00,62.2,57.7,29.88,SSW,210,0.0,0.0,85,0.47,,,1.06,VWS V14.01,2013-05-27 16:31:00,
2013-05-27 11:37:00,62.2,57.7,29.88,SE,137,0.0,0.0,85,0.43,,,1.06,VWS V14.01,2013-05-27 16:37:00,
2013-05-27 11:42:00,62.2,57.7,29.82,West,270,0.0,3.1,85,0.35,,,1.06,VWS V14.01,2013-05-27 16:42:00,
2013-05-27 11:48:00,62.4,57.9,29.82,WSW,240,0.0,2.2,85,0.35,,,1.10,VWS V14.01,2013-05-27 16:48:00,
2013-05-27 11:53:00,62.6,57.7,29.82,SW,220,0.0,0.0,84,0.31,,,1.10,VWS V14.01,2013-05-27 16:53:00,
2013-05-27 11:59:00,62.6,57.7,29.79,SW,236,0.0,4.9,84,0.24,,,1.10,VWS V14.01,2013-05-27 16:59:00,
2013-05-27 12:05:00,62.6,57.4,29.79,West,275,4.5,4.5,83,0.20,,,1.10,VWS V14.01,2013-05-27 17:05:00,
2013-05-27 12:10:00,63.1,57.9,29.79,North,353,0.0,0.0,83,0.16,,,1.10,VWS V14.01,2013-05-27 17:10:00,
2013-05-27 12:16:00,63.5,58.2,29.79,East,82,0.0,0.0,83,0.12,,,1.10,VWS V14.01,2013-05-27 17:16:00,
2013-05-27 12:21:00,64.0,58.8,29.79,East,82,0.0,0.0,83,0.12,,,1.10,VWS V14.01,2013-05-27 17:21:00,
2013-05-27 12:26:00,64.4,58.8,29.79,East,82,0.0,0.0,82,0.08,,,1.10,VWS V14.01,2013-05-27 17:26:00,
2013-05-27 12:31:00,64.4,58.8,29.79,East,82,0.0,0.0,82,0.08,,,1.10,VWS V14.01,2013-05-27 17:31:00,
2013-05-27 12:37:00,65.3,59.7,29.79,East,82,0.0,0.0,82,0.04,,,1.10,VWS V14.01,2013-05-27 17:37:00,
2013-05-27 12:42:00,65.8,59.5,29.76,East,82,0.0,0.0,80,0.04,,,1.10,VWS V14.01,2013-05-27 17:42:00,
2013-05-27 12:48:00,66.7,59.7,29.76,East,88,0.0,0.0,78,0.00,,,1.10,VWS V14.01,2013-05-27 17:48:00,
2013-05-27 12:54:00,67.1,58.2,29.76,SSW,205,0.0,0.0,73,0.00,,,1.10,VWS V14.01,2013-05-27 17:54:00,
2013-05-27 12:59:00,67.6,57.9,29.70,WSW,241,0.0,4.9,71,0.00,,,1.10,VWS V14.01,2013-05-27 17:59:00,
2013-05-27 13:04:00,67.8,57.7,29.70,SSW,213,0.0,3.1,70,0.00,,,1.10,VWS V14.01,2013-05-27 18:04:00,
2013-05-27 13:09:00,68.2,56.8,29.70,WSW,240,0.0,0.0,67,0.00,,,1.10,VWS V14.01,2013-05-27 18:09:00,
2013-05-27 13:15:00,68.4,57.0,29.76,ENE,62,0.0,0.0,67,0.00,,,1.10,VWS V14.01,2013-05-27 18:15:00,
2013-05-27 13:20:00,68.5,56.7,29.76,South,188,0.0,0.0,66,0.00,,,1.10,VWS V14.01,2013-05-27 18:20:00,
2013-05-27 13:26:00,68.7,56.5,29.76,SSW,208,0.0,0.0,65,0.00,,,1.10,VWS V14.01,2013-05-27 18:26:00,
2013-05-27 13:32:00,69.1,56.4,29.76,WNW,294,0.0,0.0,64,0.00,,,1.10,VWS V14.01,2013-05-27 18:32:00,
2013-05-27 13:37:00,69.4,56.8,29.76,North,353,0.0,0.0,64,0.00,,,1.10,VWS V14.01,2013-05-27 18:37:00,
2013-05-27 13:43:00,69.6,56.5,29.73,West,280,0.0,0.0,63,0.00,,,1.10,VWS V14.01,2013-05-27 18:43:00,
2013-05-27 13:48:00,69.6,56.0,29.73,SW,235,0.0,0.0,62,0.00,,,1.10,VWS V14.01,2013-05-27 18:48:00,
2013-05-27 13:54:00,69.4,55.9,29.73,South,176,0.0,0.0,62,0.00,,,1.10,VWS V14.01,2013-05-27 18:54:00,
2013-05-27 13:59:00,69.8,56.2,29.76,West,279,0.0,0.0,62,0.00,,,1.10,VWS V14.01,2013-05-27 18:59:00,
2013-05-27 14:05:00,70.3,56.3,29.76,ENE,69,0.0,0.0,61,0.00,,,1.10,VWS V14.01,2013-05-27 19:05:00,
2013-05-27 14:11:00,70.9,56.3,29.76,ENE,72,0.0,0.0,60,0.00,,,1.10,VWS V14.01,2013-05-27 19:11:00,
2013-05-27 14:16:00,71.2,56.2,29.76,SW,215,0.0,0.0,59,0.00,,,1.10,VWS V14.01,2013-05-27 19:16:00,
2013-05-27 14:22:00,71.6,55.1,29.76,NE,34,0.0,0.0,56,0.00,,,1.10,VWS V14.01,2013-05-27 19:22:00,
2013-05-27 14:28:00,71.8,54.3,29.76,West,276,0.0,0.0,54,0.00,,,1.10,VWS V14.01,2013-05-27 19:28:00,
2013-05-27 14:33:00,72.0,55.4,29.76,West,277,0.0,0.0,56,0.00,,,1.10,VWS V14.01,2013-05-27 19:33:00,
2013-05-27 14:39:00,72.5,54.9,29.76,West,276,0.0,0.0,54,0.00,,,1.10,VWS V14.01,2013-05-27 19:39:00,
2013-05-27 14:44:00,73.0,54.9,29.76,WNW,287,0.0,0.0,53,0.00,,,1.10,VWS V14.01,2013-05-27 19:44:00,
2013-05-27 14:50:00,73.8,54.5,29.76,WNW,287,0.0,0.0,51,0.00,,,1.10,VWS V14.01,2013-05-27 19:50:00,
2013-05-27 14:56:00,74.8,55.5,29.76,WNW,287,0.0,0.0,51,0.00,,,1.10,VWS V14.01,2013-05-27 19:56:00,
2013-05-27 15:01:00,74.8,53.8,29.76,WNW,287,0.0,0.0,48,0.00,,,1.10,VWS V14.01,2013-05-27 20:01:00,
2013-05-27 15:07:00,75.4,54.9,29.76,WNW,287,0.0,0.0,49,0.00,,,1.10,VWS V14.01,2013-05-27 20:07:00,
2013-05-27 15:12:00,75.6,52.8,29.76,East,95,0.0,0.0,45,0.00,,,1.10,VWS V14.01,2013-05-27 20:12:00,
2013-05-27 15:18:00,75.4,53.2,29.76,East,95,0.0,0.0,46,0.00,,,1.10,VWS V14.01,2013-05-27 20:18:00,
2013-05-27 15:24:00,75.7,52.9,29.76,East,95,0.0,0.0,45,0.00,,,1.10,VWS V14.01,2013-05-27 20:24:00,
2013-05-27 15:29:00,75.4,52.6,29.76,NE,38,0.0,0.0,45,0.00,,,1.10,VWS V14.01,2013-05-27 20:29:00,
2013-05-27 15:35:00,74.5,51.8,29.76,North,6,0.0,0.0,45,0.00,,,1.10,VWS V14.01,2013-05-27 20:35:00,
2013-05-27 15:40:00,75.0,52.3,29.76,ESE,108,0.0,0.0,45,0.00,,,1.10,VWS V14.01,2013-05-27 20:40:00,
2013-05-27 15:46:00,75.9,53.1,29.76,ESE,108,0.0,0.0,45,0.00,,,1.10,VWS V14.01,2013-05-27 20:46:00,
2013-05-27 15:52:00,76.1,52.6,29.76,North,350,0.0,0.0,44,0.00,,,1.10,VWS V14.01,2013-05-27 20:52:00,
2013-05-27 15:57:00,76.5,53.0,29.76,North,350,0.0,0.0,44,0.00,,,1.10,VWS V14.01,2013-05-27 20:57:00,
2013-05-27 16:03:00,75.9,51.2,29.76,North,350,0.0,0.0,42,0.00,,,1.10,VWS V14.01,2013-05-27 21:03:00,
2013-05-27 16:08:00,75.9,53.1,29.76,SE,139,0.0,0.0,45,0.00,,,1.10,VWS V14.01,2013-05-27 21:08:00,
2013-05-27 16:14:00,75.9,53.1,29.73,NNE,13,0.0,0.0,45,0.00,,,1.10,VWS V14.01,2013-05-27 21:14:00,
2013-05-27 16:19:00,75.6,53.9,29.73,East,80,0.0,0.0,47,0.00,,,1.10,VWS V14.01,2013-05-27 21:19:00,
2013-05-27 16:24:00,76.1,53.2,29.73,East,80,0.0,0.0,45,0.00,,,1.10,VWS V14.01,2013-05-27 21:24:00,
2013-05-27 16:29:00,76.6,52.5,29.73,East,79,0.0,0.0,43,0.00,,,1.10,VWS V14.01,2013-05-27 21:29:00,
2013-05-27 16:34:00,75.9,51.8,29.73,East,80,0.0,0.0,43,0.00,,,1.10,VWS V14.01,2013-05-27 21:34:00,
2013-05-27 16:39:00,74.8,52.1,29.73,East,80,0.0,0.0,45,0.00,,,1.10,VWS V14.01,2013-05-27 21:39:00,
2013-05-27 16:45:00,73.6,52.7,29.73,East,80,0.0,0.0,48,0.00,,,1.10,VWS V14.01,2013-05-27 21:45:00,
2013-05-27 16:50:00,73.2,52.9,29.73,East,80,0.0,0.0,49,0.00,,,1.10,VWS V14.01,2013-05-27 21:50:00,
2013-05-27 16:56:00,73.6,53.3,29.73,East,80,0.0,0.0,49,0.00,,,1.10,VWS V14.01,2013-05-27 21:56:00,
2013-05-27 17:01:00,73.9,53.0,29.73,East,80,0.0,0.0,48,0.00,,,1.10,VWS V14.01,2013-05-27 22:01:00,
2013-05-27 17:07:00,74.5,53.5,29.73,ENE,76,0.0,0.0,48,0.00,,,1.10,VWS V14.01,2013-05-27 22:07:00,
2013-05-27 17:13:00,73.9,52.5,29.76,ENE,76,0.0,0.0,47,0.00,,,1.10,VWS V14.01,2013-05-27 22:13:00,
2013-05-27 17:18:00,74.3,53.4,29.76,ENE,76,0.0,0.0,48,0.00,,,1.10,VWS V14.01,2013-05-27 22:18:00,
2013-05-27 17:23:00,74.8,53.3,29.76,ENE,76,0.0,0.0,47,0.00,,,1.10,VWS V14.01,2013-05-27 22:23:00,
2013-05-27 17:28:00,74.7,51.9,29.76,ENE,76,0.0,0.0,45,0.00,,,1.10,VWS V14.01,2013-05-27 22:28:00,
2013-05-27 17:34:00,74.7,52.5,29.76,ENE,76,0.0,0.0,46,0.00,,,1.10,VWS V14.01,2013-05-27 22:34:00,
2013-05-27 17:39:00,74.5,53.0,29.76,ENE,76,0.0,0.0,47,0.00,,,1.10,VWS V14.01,2013-05-27 22:39:00,
2013-05-27 17:45:00,75.0,52.9,29.76,SSE,162,0.0,0.0,46,0.00,,,1.10,VWS V14.01,2013-05-27 22:45:00,
2013-05-27 17:51:00,74.8,51.5,29.76,SSW,202,0.0,0.0,44,0.00,,,1.10,VWS V14.01,2013-05-27 22:51:00,
2013-05-27 17:56:00,74.7,51.9,29.76,SSW,202,0.0,0.0,45,0.00,,,1.10,VWS V14.01,2013-05-27 22:56:00,
2013-05-27 18:01:00,74.5,52.4,29.76,SSW,201,0.0,0.0,46,0.00,,,1.10,VWS V14.01,2013-05-27 23:01:00,
2013-05-27 18:06:00,73.9,51.3,29.76,SSW,202,0.0,0.0,45,0.00,,,1.10,VWS V14.01,2013-05-27 23:06:00,
2013-05-27 18:11:00,73.8,52.3,29.76,SSW,202,0.0,0.0,47,0.00,,,1.10,VWS V14.01,2013-05-27 23:11:00,
2013-05-27 18:17:00,73.8,52.9,29.76,SSW,201,0.0,0.0,48,0.00,,,1.10,VWS V14.01,2013-05-27 23:17:00,
2013-05-27 18:23:00,73.8,52.9,29.76,SSW,202,0.0,0.0,48,0.00,,,1.10,VWS V14.01,2013-05-27 23:23:00,
2013-05-27 18:28:00,73.8,53.4,29.76,SSW,202,0.0,0.0,49,0.00,,,1.10,VWS V14.01,2013-05-27 23:28:00,
2013-05-27 18:34:00,73.6,53.3,29.76,SSW,202,0.0,0.0,49,0.00,,,1.10,VWS V14.01,2013-05-27 23:34:00,
2013-05-27 18:39:00,73.4,53.7,29.76,SSW,202,0.0,0.0,50,0.00,,,1.10,VWS V14.01,2013-05-27 23:39:00,
2013-05-27 18:44:00,73.0,53.9,29.76,SSW,202,0.0,0.0,51,0.00,,,1.10,VWS V14.01,2013-05-27 23:44:00,
2013-05-27 18:49:00,72.9,53.7,29.76,SSW,202,0.0,0.0,51,0.00,,,1.10,VWS V14.01,2013-05-27 23:49:00,
2013-05-27 18:55:00,72.5,53.9,29.76,SSW,202,0.0,0.0,52,0.00,,,1.10,VWS V14.01,2013-05-27 23:55:00,
2013-05-27 19:00:00,72.3,54.8,29.76,SSW,202,0.0,0.0,54,0.00,,,1.10,VWS V14.01,2013-05-28 00:00:00,
2013-05-27 19:06:00,72.0,54.9,29.76,SSW,202,0.0,0.0,55,0.00,,,1.10,VWS V14.01,2013-05-28 00:06:00,
2013-05-27 19:12:00,71.8,54.8,29.76,SSW,202,0.0,0.0,55,0.00,,,1.10,VWS V14.01,2013-05-28 00:12:00,
2013-05-27 19:17:00,71.6,55.1,29.76,SSW,201,0.0,0.0,56,0.00,,,1.10,VWS V14.01,2013-05-28 00:17:00,
2013-05-27 19:23:00,71.4,55.4,29.76,SSW,202,0.0,0.0,57,0.00,,,1.10,VWS V14.01,2013-05-28 00:23:00,
2013-05-27 19:29:00,71.4,55.9,29.76,SSW,202,0.0,0.0,58,0.00,,,1.10,VWS V14.01,2013-05-28 00:29:00,
2013-05-27 19:34:00,71.2,55.7,29.76,SSW,202,0.0,0.0,58,0.00,,,1.10,VWS V14.01,2013-05-28 00:34:00,
2013-05-27 19:40:00,71.1,55.5,29.76,SSW,202,0.0,0.0,58,0.00,,,1.10,VWS V14.01,2013-05-28 00:40:00,
2013-05-27 19:45:00,70.9,55.8,29.76,SSW,202,0.0,0.0,59,0.00,,,1.10,VWS V14.01,2013-05-28 00:45:00,
2013-05-27 19:51:00,70.7,55.7,29.76,SSW,202,0.0,0.0,59,0.00,,,1.10,VWS V14.01,2013-05-28 00:51:00,
2013-05-27 19:56:00,70.5,56.0,29.76,SSW,202,0.0,0.0,60,0.00,,,1.10,VWS V14.01,2013-05-28 00:56:00,
2013-05-27 20:02:00,70.3,55.8,29.76,SSW,202,0.0,0.0,60,0.00,,,1.10,VWS V14.01,2013-05-28 01:02:00,
2013-05-27 20:07:00,70.3,56.3,29.76,SSW,202,0.0,0.0,61,0.00,,,1.10,VWS V14.01,2013-05-28 01:07:00,
2013-05-27 20:12:00,70.2,56.1,29.76,SSW,202,0.0,0.0,61,0.00,,,1.10,VWS V14.01,2013-05-28 01:12:00,
2013-05-27 20:18:00,70.0,56.4,29.76,SSW,202,0.0,0.0,62,0.00,,,1.10,VWS V14.01,2013-05-28 01:18:00,
2013-05-27 20:23:00,69.8,56.2,29.76,SSW,202,0.0,0.0,62,0.00,,,1.10,VWS V14.01,2013-05-28 01:23:00,
2013-05-27 20:29:00,69.6,56.5,29.76,SSW,202,0.0,0.0,63,0.00,,,1.10,VWS V14.01,2013-05-28 01:29:00,
2013-05-27 20:35:00,69.4,56.3,29.76,SSW,202,0.0,0.0,63,0.00,,,1.10,VWS V14.01,2013-05-28 01:35:00,
2013-05-27 20:40:00,69.3,56.6,29.76,SSW,202,0.0,0.0,64,0.00,,,1.10,VWS V14.01,2013-05-28 01:40:00,
2013-05-27 20:45:00,69.3,56.6,29.76,SSW,202,0.0,0.0,64,0.00,,,1.10,VWS V14.01,2013-05-28 01:45:00,
2013-05-27 20:51:00,69.1,56.8,29.76,SSW,202,0.0,0.0,65,0.00,,,1.10,VWS V14.01,2013-05-28 01:51:00,
2013-05-27 20:56:00,68.9,56.7,29.76,SSW,202,0.0,0.0,65,0.00,,,1.10,VWS V14.01,2013-05-28 01:56:00,
2013-05-27 21:01:00,68.7,56.9,29.76,SSW,202,0.0,0.0,66,0.00,,,1.10,VWS V14.01,2013-05-28 02:01:00,
2013-05-27 21:07:00,68.7,57.7,29.76,SSW,202,0.0,0.0,68,0.00,,,1.10,VWS V14.01,2013-05-28 02:07:00,
2013-05-27 21:12:00,68.7,58.2,29.76,SSW,202,0.0,0.0,69,0.00,,,1.10,VWS V14.01,2013-05-28 02:12:00,
2013-05-27 21:18:00,68.7,58.2,29.76,SSW,202,0.0,0.0,69,0.00,,,1.10,VWS V14.01,2013-05-28 02:18:00,
2013-05-27 21:23:00,68.5,58.4,29.76,SSW,202,0.0,0.0,70,0.00,,,1.10,VWS V14.01,2013-05-28 02:23:00,
2013-05-27 21:28:00,68.5,58.4,29.76,SSW,202,0.0,0.0,70,0.00,,,1.10,VWS V14.01,2013-05-28 02:28:00,
2013-05-27 21:33:00,68.4,58.2,29.76,SSW,202,0.0,0.0,70,0.00,,,1.10,VWS V14.01,2013-05-28 02:33:00,
2013-05-27 21:39:00,68.2,58.0,29.76,SSW,202,0.0,0.0,70,0.00,,,1.10,VWS V14.01,2013-05-28 02:39:00,
2013-05-27 21:44:00,68.2,58.0,29.76,SSW,202,0.0,0.0,70,0.00,,,1.10,VWS V14.01,2013-05-28 02:44:00,
2013-05-27 21:49:00,68.0,57.9,29.76,SSW,201,0.0,0.0,70,0.00,,,1.10,VWS V14.01,2013-05-28 02:49:00,
2013-05-27 21:54:00,68.0,57.9,29.76,SSW,202,0.0,0.0,70,0.00,,,1.10,VWS V14.01,2013-05-28 02:54:00,
2013-05-27 22:00:00,67.8,58.1,29.76,SSW,202,0.0,0.0,71,0.00,,,1.10,VWS V14.01,2013-05-28 03:00:00,
2013-05-27 22:05:00,67.6,57.9,29.76,SSW,202,0.0,0.0,71,0.00,,,1.10,VWS V14.01,2013-05-28 03:05:00,
2013-05-27 22:10:00,67.6,57.9,29.76,SSW,202,0.0,0.0,71,0.00,,,1.10,VWS V14.01,2013-05-28 03:10:00,
2013-05-27 22:15:00,67.6,57.9,29.76,SSW,202,0.0,0.0,71,0.00,,,1.10,VWS V14.01,2013-05-28 03:15:00,
2013-05-27 22:20:00,67.6,58.3,29.76,SSW,202,0.0,0.0,72,0.00,,,1.10,VWS V14.01,2013-05-28 03:20:00,
2013-05-27 22:25:00,67.5,58.1,29.76,SSW,202,0.0,0.0,72,0.00,,,1.10,VWS V14.01,2013-05-28 03:25:00,
2013-05-27 22:31:00,67.5,58.1,29.76,SSW,202,0.0,0.0,72,0.00,,,1.10,VWS V14.01,2013-05-28 03:31:00,
2013-05-27 22:36:00,67.5,58.1,29.76,SSW,202,0.0,0.0,72,0.00,,,1.10,VWS V14.01,2013-05-28 03:36:00,
2013-05-27 22:42:00,67.5,58.1,29.73,SSW,202,0.0,0.0,72,0.00,,,1.10,VWS V14.01,2013-05-28 03:42:00,
2013-05-27 22:47:00,67.5,58.5,29.73,SSW,202,0.0,0.0,73,0.00,,,1.10,VWS V14.01,2013-05-28 03:47:00,
2013-05-27 22:53:00,67.5,58.5,29.73,SSW,202,0.0,0.0,73,0.00,,,1.10,VWS V14.01,2013-05-28 03:53:00,
2013-05-27 22:59:00,67.3,58.3,29.76,SSW,202,0.0,0.0,73,0.00,,,1.10,VWS V14.01,2013-05-28 03:59:00,
2013-05-27 23:01:00,67.3,58.3,29.76,SSW,202,0.0,0.0,73,0.00,,,1.10,VWS V14.01,2013-05-28 04:01:00,
2013-05-27 23:02:00,67.3,58.3,29.76,SSW,202,0.0,0.0,73,0.00,,,1.10,VWS V14.01,2013-05-28 04:02:00,
2013-05-27 23:03:00,67.3,58.3,29.76,SSW,202,0.0,0.0,73,0.00,,,1.10,VWS V14.01,2013-05-28 04:03:00,
2013-05-27 23:05:00,67.3,58.3,29.76,SSW,202,0.0,0.0,73,0.00,,,1.10,VWS V14.01,2013-05-28 04:05:00,
2013-05-27 23:11:00,67.1,58.2,29.76,SSW,201,0.0,0.0,73,0.00,,,1.10,VWS V14.01,2013-05-28 04:11:00,
2013-05-27 23:14:00,66.9,58.0,29.73,SSW,202,0.0,0.0,73,0.00,,,1.10,VWS V14.01,2013-05-28 04:14:00,
2013-05-27 23:19:00,66.7,58.2,29.73,SSW,202,0.0,0.0,74,0.00,,,1.10,VWS V14.01,2013-05-28 04:19:00,
2013-05-27 23:24:00,66.6,58.0,29.73,SSW,202,0.0,0.0,74,0.00,,,1.10,VWS V14.01,2013-05-28 04:24:00,
2013-05-27 23:29:00,66.6,58.0,29.76,SSW,202,0.0,0.0,74,0.00,,,1.10,VWS V14.01,2013-05-28 04:29:00,
2013-05-27 23:35:00,66.6,58.0,29.76,SSW,202,0.0,0.0,74,0.00,,,1.10,VWS V14.01,2013-05-28 04:35:00,
2013-05-27 23:40:00,66.6,58.0,29.76,SSW,202,0.0,0.0,74,0.00,,,1.10,VWS V14.01,2013-05-28 04:40:00,
2013-05-27 23:46:00,66.6,58.4,29.73,SSW,202,0.0,0.0,75,0.00,,,1.10,VWS V14.01,2013-05-28 04:46:00,
2013-05-27 23:52:00,66.6,58.4,29.73,SSW,201,0.0,0.0,75,0.00,,,1.10,VWS V14.01,2013-05-28 04:52:00,
2013-05-27 23:57:00,66.6,58.4,29.73,SSW,202,0.0,0.0,75,0.00,,,1.10,VWS V14.01,2013-05-28 04:57:00,